STARLINK-32193, 60428

Orbit data source: Space-Track

STARLINK-32193, 60428 is a payload satellite owned by SpaceX/Seattle (US) in LEO that was launched on Mon, 12 Aug 2024 UTC via an FALCON 9 launch vehicle from the Air Force Eastern Test Range (AFETR). Payload-class satellites include a variety of spacecraft equipped with specific instruments for various scientific and technological missions. These include communications satellites like Starlink; space stations such as the ISS; scientific satellites like the Hubble; Earth observation satellites from companies like Planet Labs, Umbra, and HawkEye 360; GPS; miniature CubeSats for education and research; and military/defense satellites.

Loading next visibility...
Identifier
60428, 2024-144D
Orbit
LEO
Country
Flag of USUS
Related business
Manufacturer
SpaceX/Seattle
Mission
Operational Commercial Communications
Bus & Motor
STARLINK V2M, Unknown motor
Mass
730 kg wet, ~700 kg dry
Launch date (UTC)
2024-08-12 (2 years ago)
Launch vehicle
FALCON 9
Launch site
Air Force Eastern Test Range (AFETR)
Object type
Payload
Rocket body
Debris
Shape & HBR
Box + 2 Pan, 17.7 m
Radar Cross Section
33.884 m², Large (>1 m²)

Expand to show TLE details & history
Last TLE update: 1 day ago

TLE from 1 day ago
0 STARLINK-32193
1 60428U 24144D   26170.80886285 -.00001564  00000-0 -35150-4 0  9992
2 60428  53.1622 102.8328 0001502  90.6565 269.4610 15.34402092104984
Epoch: 2026-06-19T19:24Z
TLE epoch observation values (Epoch: 2026-06-19T19:24:45.750Z)
Latitude
0.00001°
Longitude
-96.39033°
Altitude
463.608 km
Speed
7.636 km/s
True Right ascension
06h 51m 19s
True Declination
0° 00' 00"
Sunlit
Object was in daylight at epoch
Visualization orbit readout
Latitude
Unknown
Longitude
Unknown
Altitude
Unknown
Speed
Unknown
Apparent Right ascension
Unknown
Apparent Declination
Unknown
Sunlit
N/A
Visualization observer readout
Local Sidereal Time
07:12:31
Azimuth
Unknown
Elevation
Unknown
Doppler factor
Unknown
Orbital elements
Apogee altitude
463.981 km
Perigee altitude
461.926 km
Semi-major axis
6,841.091 km
Eccentricity
0.00015
Inclination
53.1622°
RAAN
102.8328°
Arg. of periapsis
90.6565°
True anomaly
269.44379°
Mean anomaly
269.461°
Eccentric anomaly
269.45239°
Mean motion
3.83579 °/min
Orbital period
93.85 mins
BSTAR
-0.00003515
Loading maneuver chart data...
Computing Atmospheric mass density...
Loading historical data...
Loading historical data...
Loading historical data...
Loading historical data...
Loading historical data...
Loading historical data...
Loading historical data...

Documentation

Showing up to 5 results
|